TimeEDT,TemperatureF,Dew PointF,Humidity,Sea Level PressureIn,VisibilityMPH,Wind Direction,Wind SpeedMPH,Gust SpeedMPH,PrecipitationIn,Events,Conditions,WindDirDegrees,DateUTC
12:53 AM,72.0,54.0,53,29.65,10.0,SSW,16.1,26.5,N/A,,Overcast,200,2013-11-01 04:53:00
1:53 AM,71.1,55.0,57,29.63,10.0,South,12.7,-,N/A,,Overcast,190,2013-11-01 05:53:00
2:53 AM,71.1,55.0,57,29.62,10.0,South,8.1,-,N/A,,Overcast,190,2013-11-01 06:53:00
3:53 AM,64.9,59.0,81,29.64,10.0,WSW,11.5,-,0.03,,Overcast,250,2013-11-01 07:53:00
4:53 AM,63.0,59.0,87,29.61,8.0,West,6.9,-,0.01,Rain,Light Rain,280,2013-11-01 08:53:00
5:53 AM,63.0,60.1,90,29.67,4.0,WSW,10.4,-,0.08,Rain,Rain,240,2013-11-01 09:53:00
6:44 AM,61.0,55.9,83,29.77,10.0,West,13.8,21.9,0.15,,Overcast,260,2013-11-01 10:44:00
6:53 AM,61.0,55.9,83,29.72,10.0,WSW,12.7,-,0.15,,Overcast,250,2013-11-01 10:53:00
7:53 AM,60.1,55.9,86,29.74,10.0,SSW,6.9,-,0.00,Rain,Light Rain,200,2013-11-01 11:53:00
8:53 AM,60.1,57.0,90,29.75,10.0,SSW,4.6,-,0.00,,Scattered Clouds,200,2013-11-01 12:53:00
9:02 AM,61.0,57.0,87,29.81,10.0,SSW,4.6,-,N/A,,Mostly Cloudy,200,2013-11-01 13:02:00
9:39 AM,62.1,57.9,86,29.82,10.0,WSW,5.8,-,N/A,,Overcast,240,2013-11-01 13:39:00
9:53 AM,62.1,57.0,84,29.76,10.0,WSW,6.9,-,0.00,Rain,Light Rain,240,2013-11-01 13:53:00
10:08 AM,63.0,57.9,84,29.82,10.0,SW,6.9,-,0.00,Rain,Light Rain,220,2013-11-01 14:08:00
10:29 AM,64.0,59.0,84,29.81,10.0,West,5.8,-,0.00,,Overcast,270,2013-11-01 14:29:00
10:53 AM,64.9,57.9,78,29.74,10.0,SW,11.5,-,0.00,,Mostly Cloudy,220,2013-11-01 14:53:00
11:12 AM,66.0,55.0,68,29.80,10.0,SW,12.7,25.3,N/A,,Scattered Clouds,230,2013-11-01 15:12:00
11:53 AM,68.0,53.1,59,29.72,10.0,SW,18.4,-,N/A,,Partly Cloudy,220,2013-11-01 15:53:00
12:53 PM,70.0,48.0,46,29.70,10.0,SW,19.6,25.3,N/A,,Partly Cloudy,220,2013-11-01 16:53:00
1:53 PM,70.0,45.0,41,29.68,10.0,SW,17.3,-,N/A,,Partly Cloudy,230,2013-11-01 17:53:00
2:53 PM,70.0,44.1,39,29.66,10.0,SW,17.3,23.0,N/A,,Partly Cloudy,230,2013-11-01 18:53:00
3:53 PM,71.1,42.1,35,29.65,10.0,West,11.5,19.6,N/A,,Scattered Clouds,260,2013-11-01 19:53:00
4:53 PM,70.0,42.1,36,29.64,10.0,SW,10.4,-,N/A,,Partly Cloudy,220,2013-11-01 20:53:00
5:53 PM,66.9,41.0,39,29.66,10.0,SW,12.7,-,N/A,,Partly Cloudy,230,2013-11-01 21:53:00
6:53 PM,61.0,42.1,50,29.69,10.0,WSW,8.1,-,N/A,,Partly Cloudy,240,2013-11-01 22:53:00
7:53 PM,61.0,43.0,52,29.71,10.0,WSW,10.4,-,N/A,,Partly Cloudy,240,2013-11-01 23:53:00
8:53 PM,61.0,44.1,54,29.72,10.0,WSW,10.4,-,N/A,,Partly Cloudy,240,2013-11-02 00:53:00
9:53 PM,57.0,45.0,64,29.73,10.0,SSW,5.8,-,N/A,,Scattered Clouds,210,2013-11-02 01:53:00
10:53 PM,55.9,45.0,67,29.75,10.0,West,4.6,-,N/A,,Scattered Clouds,260,2013-11-02 02:53:00
11:53 PM,54.0,43.0,66,29.75,10.0,West,5.8,-,N/A,,Scattered Clouds,270,2013-11-02 03:53:00